[Date Prev][Date Next][Thread Prev][Thread Next] - [Date Index][Thread Index][Author Index]

2 Line ISS Keps 9-29



ISS
1 25544U 98067A   03272.13385948  .00019992  00000-0  22277-3 0  5691
2 25544  51.6306 216.4904 0005485 303.9642 175.6531 15.62807629277244


----
Via the sarex mailing list at AMSAT.ORG courtesy of AMSAT-NA.
To unsubscribe, send "unsubscribe sarex" to Majordomo@amsat.org



AMSAT Top AMSAT Home